Showing default

BEIDOU 3M22, 44794

Orbit data source: Space-Track

BEIDOU 3M22, 44794 is a payload satellite owned by CNSA (CN) in MEO that was launched on Sat, 23 Nov 2019 UTC via a CHANG ZHENG 3B/YZ-1 launch vehicle from the Xichang Space Center, China (XSC). Payload-class satellites include a variety of spacecraft equipped with specific instruments for various scientific and technological missions. These include communications satellites like Starlink; space stations such as the ISS; scientific satellites like the Hubble; Earth observation satellites from companies like Planet Labs, Umbra, and HawkEye 360; GPS; miniature CubeSats for education and research; and military/defense satellites.

Loading next visibility...
Identifier
44794, 2019-078B
Orbit
MEO
Country
Flag of CNCN / PRC
Related business
Manufacturer
SECM
Mission
Operational Defense Navigation
Bus & Motor
BD-3M2, Unknown motor
Mass
1,014 kg wet, ~850 kg dry
Launch date (UTC)
2019-11-23 (7 years ago)
Launch vehicle
CHANG ZHENG 3B/YZ-1
Launch site
Xichang Space Center, China (XSC)
Object type
Payload
Rocket body
Debris
Shape & HBR
Box + 2 Pan, 1.6 m
Radar Cross Section
8.984 m², Large (>1 m²)

Expand to show TLE details & history
Last TLE update: 2 days ago

TLE from 2 days ago
0 BEIDOU 3M22
1 44794U 19078B   26264.33812216 -.00000014  00000-0  00000-0 0  9995
2 44794  53.8190 296.3951 0002837  28.5345 331.5435  1.86228024 46443
Epoch: 2026-09-21T08:06Z
TLE epoch observation values (Epoch: 2026-09-21T08:06:53.754Z)
Latitude
0.00005°
Longitude
174.47112°
Altitude
21,521.63 km
Speed
3.78 km/s
True Right ascension
19h 45m 39s
True Declination
0° 00' 00"
Sunlit
Object was in daylight at epoch
Visualization orbit readout
Latitude
Unknown
Longitude
Unknown
Altitude
Unknown
Speed
Unknown
Apparent Right ascension
Unknown
Apparent Declination
Unknown
Sunlit
N/A
Visualization observer readout
Local Sidereal Time
01:45:32
Azimuth
Unknown
Elevation
Unknown
Doppler factor
Unknown
Orbital elements
Apogee altitude
21,536.319 km
Perigee altitude
21,520.485 km
Semi-major axis
27,906.539 km
Eccentricity
0.00028
Inclination
53.819°
RAAN
296.3951°
Arg. of periapsis
28.5345°
True anomaly
331.528°
Mean anomaly
331.5435°
Eccentric anomaly
331.53575°
Mean motion
0.46557 °/min
Orbital period
773.25 mins
BSTAR
0
Loading maneuver chart data...
Computing Atmospheric mass density...
Loading historical data...
Loading historical data...
Loading historical data...
Loading historical data...
Loading historical data...
Loading historical data...
Loading historical data...
Other satellites on launch #78 in the year 2019 (2019-11-23 UTC)

Documentation

Showing up to 5 results
|